| time (UTC) | temp F | wind direction | speed knots | gust knots | rain 1hr in | rain 24hr in | rain mn in | humidity % | barometer mb |
| 20260505100347 | 56 | 259 | 0.0 | 0.0 | 0.00 | 0.00 | 0.00 | 82 | 1020.8 |
| 20260505093347 | 56 | 259 | 0.0 | 0.0 | 0.00 | 0.00 | 0.00 | 83 | 1020.5 |
| 20260505090347 | 57 | 90 | 0.0 | 0.0 | 0.00 | 0.00 | 0.00 | 83 | 1020.2 |
| 20260505083347 | 58 | 90 | 0.0 | 0.0 | 0.00 | 0.00 | 0.00 | 81 | 1019.7 |
| 20260505080347 | 59 | 90 | 0.0 | 0.0 | 0.00 | 0.00 | 0.00 | 78 | 1019.2 |
| 20260505073347 | 62 | 90 | 0.0 | 0.0 | 0.00 | 0.00 | 0.00 | 75 | 1018.8 |
| 20260505070347 | 67 | 90 | 0.0 | 0.0 | 0.00 | 0.00 | 0.00 | 66 | 1018.3 |
| 20260505063350 | 71 | 90 | 0.0 | 0.0 | 0.00 | 0.00 | 0.00 | 62 | 1017.9 |
| 20260505060350 | 74 | 131 | 0.9 | 2.6 | 0.00 | 0.00 | 0.00 | 59 | 1017.5 |
| 20260505053350 | 75 | 90 | 0.9 | 1.7 | 0.00 | 0.00 | 0.00 | 57 | 1017.1 |
| 20260505050350 | 76 | 82 | 0.0 | 1.7 | 0.00 | 0.00 | 0.00 | 54 | 1016.8 |
| 20260505040349 | 73 | 261 | 1.7 | 5.2 | 0.00 | 0.00 | 0.00 | 53 | 1016.6 |
| 20260505033349 | 73 | 256 | 2.6 | 6.1 | 0.00 | 0.00 | 0.00 | 55 | 1016.6 |
| 20260505030348 | 73 | 224 | 2.6 | 4.3 | 0.00 | 0.00 | 0.00 | 54 | 1016.7 |
| 20260505023348 | 72 | 254 | 6.1 | 10.4 | 0.00 | 0.00 | 0.00 | 56 | 1016.8 |
| 20260505020348 | 71 | 232 | 2.6 | 7.0 | 0.00 | 0.00 | 0.00 | 58 | 1017.3 |
| 20260505013348 | 71 | 260 | 7.0 | 10.4 | 0.00 | 0.00 | 0.00 | 63 | 1017.7 |
| 20260505010348 | 69 | 261 | 5.2 | 8.7 | 0.00 | 0.00 | 0.00 | 61 | 1017.9 |
| 20260505003347 | 68 | 283 | 7.0 | 10.4 | 0.00 | 0.00 | 0.00 | 65 | 1018.1 |
| 20260505000347 | 67 | 216 | 1.7 | 2.6 | 0.00 | 0.00 | 0.00 | 67 | 1018.1 |
| 20260504233347 | 65 | 263 | 6.1 | 8.7 | 0.00 | 0.00 | 0.00 | 69 | 1018.1 |
| 20260504230347 | 63 | 253 | 10.4 | 11.3 | 0.00 | 0.00 | 0.00 | 70 | 1018.1 |
| 20260504223346 | 62 | 250 | 6.1 | 10.4 | 0.00 | 0.00 | 0.00 | 73 | 1017.9 |
| 20260504220346 | 61 | 260 | 13.0 | 17.4 | 0.00 | 0.00 | 0.00 | 73 | 1017.4 |
| 20260504213346 | 60 | 252 | 8.7 | 14.8 | 0.00 | 0.00 | 0.00 | 74 | 1016.7 |
| 20260504210346 | 59 | 217 | 4.3 | 2.6 | 0.00 | 0.00 | 0.00 | 73 | 1016.6 |
| 20260504203346 | 59 | 252 | 11.3 | 17.4 | 0.00 | 0.00 | 0.00 | 74 | 1015.8 |
| 20260504200345 | 56 | 257 | 8.7 | 13.9 | 0.00 | 0.00 | 0.00 | 79 | 1015.7 |
| 20260504193348 | 56 | 220 | 2.6 | 2.6 | 0.00 | 0.00 | 0.00 | 78 | 1015.8 |
| 20260504190348 | 56 | 207 | 1.7 | 2.6 | 0.00 | 0.00 | 0.00 | 77 | 1015.9 |
| 20260504183348 | 57 | 239 | 2.6 | 4.3 | 0.00 | 0.00 | 0.00 | 78 | 1016.0 |
| 20260504180348 | 57 | 242 | 2.6 | 2.6 | 0.00 | 0.00 | 0.00 | 78 | 1015.6 |
| 20260504173348 | 57 | 245 | 1.7 | 4.3 | 0.00 | 0.00 | 0.00 | 79 | 1015.7 |
| 20260504170348 | 58 | 264 | 11.3 | 15.6 | 0.00 | 0.00 | 0.00 | 78 | 1015.5 |
| 20260504160348 | 59 | 259 | 11.3 | 14.8 | 0.00 | 0.00 | 0.00 | 80 | 1015.7 |
| 20260504150348 | 60 | 268 | 7.0 | 10.4 | 0.00 | 0.00 | 0.00 | 78 | 1015.8 |
| 20260504140348 | 60 | 266 | 10.4 | 13.9 | 0.00 | 0.00 | 0.00 | 82 | 1015.8 |
| 20260504130349 | 61 | 236 | 4.3 | 7.0 | 0.00 | 0.00 | 0.00 | 86 | 1015.8 |
| 20260504110349 | 61 | 235 | 1.7 | 2.6 | 0.00 | 0.00 | 0.00 | 92 | 1016.3 |